Location: Horowhenua
(40.7500°S, 175.3333°E)
Time: 05:27:52
(UTC+00:00)

UNK - Pass Details

Date: 28 January 2023
Orbit: 663 x 684 km, 98.2° (Epoch: 01 April)

Event Time Altitude Azimuth Distance (km) Brightness Sun altitude
Rises 15:10:22 0° 163° (SSE) 3,040 8.3 -20.5°
Reaches altitude 10° 15:12:40 10° 158° (SSE) 2,120 7.3 -20.2°
Maximum altitude 15:17:12 54° 80° (E) 819 4.3 -19.7°
Enters shadow 15:19:45 24° 11° (NNE) 1,369 5.0 -19.3°
